{"data":{"norad_id":45048,"intl_designator":"2020-006E","name":"STARLINK-1134","alt_names":[],"object_type":"PAYLOAD","status":"ACTIVE","operator":null,"country":"US","launch_date":"2020-01-29","launch_site_code":"AFETR","launch_vehicle":null,"mission":null,"orbit_class":"UNKNOWN","rcs_meters":null,"size_class":null,"mass_kg":null,"dimensions":null,"purposes":["comms"],"wikipedia_slug":null,"has_3d_model":false,"image_url":null,"decayed_at":null,"tle_current":{"epoch":"2026-09-20T00:32:28.339872Z","epoch_age_seconds":59574,"freshness":"FRESH","line1":"1 45048U 20006E   26263.02255023  .00044506  00000+0  37241-3 0  9995","line2":"2 45048  53.0195  14.2800 0005058  68.2417 291.9137 15.69553210367439","mean_motion":15.6955321,"eccentricity":0.0005058,"inclination_deg":53.0195,"raan_deg":14.28,"arg_perigee_deg":68.2417,"mean_anomaly_deg":291.9137,"bstar":0.00037241,"rev_number":36743,"period_min":91.745854223063,"perigee_km":356.76722229074,"apogee_km":363.58369917601,"semimajor_km":6738.3124607334,"source":"CELESTRAK","updated_at":"2026-09-20T09:00:38.222635Z"}}}